[[[{"header":{"parameterUnit":"kt","parameterCategory":2,"dx":1,"dy":1,"la1":30.253999710083008,"la2":30.299108505249023,"lo1":-89.0895004272461,"lo2":-89.04439544677734,"nx":28,"ny":28,"refTime":"2022-10-19T21:00:00:Z","depth":"0","parameterNumber":2,"parameterNumberName":"U-component_of_CURRENTS"},"data":[0.333,0.3318,0.3336,0.3339,0.3388,0.334,0.3321,0.3264,0.3267,0.3151,0.309,0.3108,0.3093,0.2894,0.2645,0.2619,0.2443,0.2364,0.2465,0.2746,0.2805,0.2862,0.2711,0.2292,0.2291,0.1743,0.1738,0.1734,0.34,0.3452,0.3498,0.3521,0.3564,0.3612,0.3656,0.3588,0.3583,0.3655,0.369,0.3645,0.3586,0.3588,0.3475,0.3341,0.3261,0.3224,0.296,0.2943,0.3494,0.3354,0.3064,0.3064,0.3065,0.3065,0.3065,0.3065,0.3566,0.3568,0.3627,0.3619,0.3697,0.3727,0.3695,0.3769,0.3815,0.382,0.3998,0.4017,0.4049,0.4251,0.4274,0.4072,0.4213,0.3914,0.39,0.384,0.3641,0.4222,0.4211,0.4215,0.4218,0.422,0.4223,0,0.3644,0.3674,0.37,0.3732,0.3764,0.3788,0.3834,0.3867,0.3956,0.4018,0.4112,0.4198,0.4395,0.4419,0.458,0.4629,0.4407,0.4602,0.4428,0.3887,0.3695,0.3617,0.4284,0.4296,0.43,0.4303,0.4305,0.4307,0.3725,0.3743,0.3788,0.3801,0.3815,0.3835,0.3872,0.3938,0.398,0.4095,0.4129,0.4291,0.4383,0.4631,0.4727,0.4878,0.4718,0.4688,0.46,0.4363,0.4325,0.4223,0.4141,0.435,0.4345,0.434,0.4336,0,0.3735,0.3808,0.3814,0.3863,0.3875,0.3873,0.3924,0.3968,0.4032,0.4099,0.4131,0.4266,0.4422,0.4561,0.4756,0.4791,0.476,0.4929,0.4622,0.4602,0.4404,0.4354,0.4247,0.4149,0.4975,0.4974,0.4974,0,0.38,0.3786,0.3877,0.3877,0.3884,0.3923,0.3949,0.3984,0.4062,0.4106,0.4188,0.4253,0.4415,0.4537,0.4628,0.4753,0.4813,0.4793,0.4813,0.4569,0.4542,0.4361,0.4297,0.4891,0.489,0.4889,0.4888,0,0.3798,0.3847,0.3887,0.3888,0.393,0.3941,0.3959,0.4017,0.4049,0.4137,0.4173,0.4296,0.4375,0.4484,0.4599,0.4578,0.4781,0.4773,0.4774,0.477,0.4553,0.4525,0.4413,0.4886,0.4886,0.4885,0.4885,0,0.3831,0.388,0.3924,0.3939,0.3951,0.3956,0.399,0.4011,0.4087,0.4111,0.4179,0.4228,0.4348,0.4336,0.4522,0.4468,0.4535,0.4596,0.4603,0.4524,0.4507,0.4391,0.4429,0.4224,0.4668,0.4666,0.4664,0,0.3782,0.3882,0.3935,0.3934,0.3959,0.3966,0.3995,0.4013,0.4041,0.4085,0.4153,0.4213,0.4225,0.4264,0.4333,0.4431,0.4494,0.4411,0.4537,0.4541,0.4491,0.4574,0.4306,0.4408,0.4639,0.4641,0.4643,0,0.3769,0.3901,0.3892,0.3904,0.3941,0.3948,0.3982,0.4005,0.403,0.4049,0.4088,0.4179,0.4197,0.4228,0.427,0.4331,0.4452,0.433,0.4333,0.44,0.461,0.4546,0.4558,0.4471,0.4474,0.4476,0.4623,0,0.3775,0.3816,0.3857,0.3937,0.3943,0.3949,0.3969,0.3979,0.3978,0.3982,0.4046,0.4092,0.4137,0.4174,0.4184,0.4286,0.428,0.4276,0.4259,0.4308,0.4362,0.4378,0.4167,0.4165,0.4164,0.4164,0,0,0.3681,0.3793,0.3865,0.3916,0.3914,0.3914,0.3923,0.3938,0.3934,0.3945,0.3936,0.4018,0.4054,0.4141,0.4161,0.4169,0.4199,0.4163,0.4267,0.4278,0.4289,0.4344,0.4361,0.4162,0.4161,0.4161,0.4161,0,0.3711,0.3786,0.3862,0.3871,0.3904,0.3908,0.3908,0.3915,0.3919,0.3925,0.3947,0.3991,0.4024,0.4075,0.4103,0.4148,0.4182,0.4161,0.418,0.4256,0.4269,0.428,0.4337,0.4353,0.4158,0.4158,0.4158,0,0.3676,0.3754,0.379,0.3867,0.3882,0.3897,0.3884,0.3897,0.3898,0.3895,0.3915,0.3945,0.3977,0.403,0.4051,0.4033,0.415,0.4099,0.4104,0.4093,0.4169,0.4183,0.4196,0.4041,0.4041,0.4041,0,0,0.3688,0.3777,0.3809,0.3867,0.3886,0.3881,0.3885,0.3874,0.3884,0.3885,0.3898,0.392,0.3965,0.398,0.4012,0.4048,0.4069,0.4088,0.4094,0.4098,0.409,0.4167,0.418,0.4041,0.4041,0.4041,0,0,0.3673,0.3773,0.3777,0.3864,0.3863,0.3875,0.3895,0.3875,0.3879,0.3882,0.3898,0.3905,0.3953,0.395,0.3941,0.4027,0.3999,0.4002,0.4046,0.4053,0.4058,0.4046,0.3965,0,0,0,0,0,0.3701,0.3767,0.377,0.3787,0.3861,0.3876,0.3877,0.3878,0.3869,0.387,0.3877,0.3898,0.3949,0.3941,0.395,0.4008,0.4036,0.4037,0.4038,0.4104,0.4111,0.4117,0,0,0,0,0,0,0.3708,0.3733,0.3767,0.3793,0.3808,0.3876,0.3871,0.3871,0.3869,0.3868,0.3894,0.3899,0.3918,0.3939,0.3947,0.4002,0.3963,0.4036,0.4037,0.4038,0.4107,0.4112,0.4117,0,0,0,0,0,0.3713,0.3733,0.3868,0.379,0.3803,0.3812,0.387,0.387,0.3864,0.3897,0.3901,0.3864,0.3918,0.3926,0.3944,0.3998,0.3958,0.396,0.4037,0.4037,0.4038,0.4109,0,0,0,0,0,0,0.3717,0.3715,0.3868,0.3869,0.3786,0.3807,0.3817,0.387,0.3893,0.3897,0.3871,0.387,0.3918,0.3924,0.393,0.3997,0.3953,0.3956,0.3958,0.4037,0.4038,0.4038,0,0,0,0,0,0,0.3704,0.3717,0.3869,0.3865,0.3865,0.3801,0.3811,0.3842,0.3895,0.3866,0.3866,0.3871,0.3922,0.3923,0.3927,0.3973,0.395,0.3953,0.3955,0.3956,0.4037,0.4038,0,0,0,0,0,0,0.3707,0.3718,0.3864,0.3865,0.3865,0.3874,0.3828,0.3911,0.3869,0.3865,0.3869,0.3868,0.3922,0.3926,0.3926,0.3969,0.3972,0.395,0.3952,0.3953,0.3954,0,0,0,0,0,0,0,0.3711,0.3657,0.3866,0.3865,0.3865,0.3879,0.3879,0.3879,0.3869,0.3869,0.3869,0.3868,0.3935,0.3938,0.3941,0.3966,0,0,0.395,0.3951,0,0,0,0,0,0,0,0,0.3651,0.3656,0.3866,0.3866,0.3866,0.3879,0.3879,0.3879,0.3869,0.3869,0.3869,0.3869,0.3936,0.3938,0.394,0,0,0,0,0,0,0,0,0,0,0,0,0,0,0,0.3866,0.3866,0,0.3879,0.3879,0.3879,0.3869,0.3869,0.3869,0.3869,0.3936,0.3938,0.394,0,0,0,0,0,0,0,0,0,0,0,0,0,0,0,0,0,0,0,0,0,0,0,0,0,0,0,0,0,0,0,0,0,0,0,0,0,0,0,0,0,0,0,0,0,0,0,0,0,0,0,0,0,0,0,0,0,0,0,0,0,0,0,0,0,0,0,0,0]}],[{"header":{"parameterUnit":"kt","parameterCategory":2,"dx":1,"dy":1,"la1":30.253999710083008,"la2":30.299108505249023,"lo1":-89.0895004272461,"lo2":-89.04439544677734,"nx":28,"ny":28,"refTime":"2022-10-19T21:00:00:Z","depth":"0","parameterNumber":3,"parameterNumberName":"V-component_of_CURRENTS"},"data":[0.0198,0.0322,0.0302,0.0358,0.0377,0.0384,0.0388,0.0439,0.0509,0.0628,0.0721,0.0759,0.0686,0.0196,-0.0188,-0.0307,-0.0447,-0.0472,-0.0577,-0.0517,-0.0518,-0.0519,-0.0573,-0.0513,-0.0514,-0.0628,-0.0629,-0.063,0.0055,0.0081,0.0207,0.0302,0.0342,0.0347,0.0412,0.0433,0.0472,0.0582,0.0602,0.0647,0.0486,0.0292,0.0003,-0.022,-0.0304,-0.0356,-0.039,-0.0401,-0.0288,-0.0329,-0.0217,-0.0217,-0.0217,-0.0217,-0.0217,-0.0217,-0.0213,-0.0103,-0.0008,0.0122,0.0212,0.0259,0.0324,0.0372,0.0452,0.0499,0.051,0.0551,0.0448,0.0201,0.0031,-0.0201,-0.0251,-0.0315,-0.0369,-0.0398,-0.0449,-0.0403,-0.0223,-0.0224,-0.0225,-0.0226,-0.0226,0,-0.0427,-0.0372,-0.0271,-0.0126,-0.001,0.0093,0.0177,0.0258,0.0255,0.0345,0.039,0.0392,0.0314,0.0201,0.0012,-0.0124,-0.0331,-0.0293,-0.0388,-0.0455,-0.0537,-0.0597,-0.0557,-0.0289,-0.029,-0.0291,-0.0292,-0.0293,-0.0642,-0.0573,-0.0439,-0.0348,-0.0307,-0.0164,-0.0085,-0.006,0.0009,0.0096,0.016,0.0183,0.0156,0.008,-0.0116,-0.0257,-0.0401,-0.0317,-0.045,-0.0586,-0.069,-0.0748,-0.0775,-0.0308,-0.0306,-0.0304,-0.0303,0,-0.0701,-0.0748,-0.0626,-0.0562,-0.0531,-0.0397,-0.0307,-0.0207,-0.0166,-0.0037,-0.0005,-0.0039,-0.0061,-0.0203,-0.025,-0.0402,-0.0471,-0.0496,-0.0473,-0.0503,-0.0673,-0.0746,-0.0559,-0.0569,-0.0488,-0.0488,-0.0487,0,-0.0846,-0.0785,-0.0799,-0.0754,-0.0595,-0.0656,-0.0487,-0.0472,-0.0406,-0.0313,-0.0387,-0.0308,-0.0436,-0.0441,-0.0579,-0.0626,-0.0548,-0.0758,-0.0789,-0.0753,-0.076,-0.0845,-0.0924,-0.0686,-0.0687,-0.0688,-0.0689,0,-0.0924,-0.0947,-0.0888,-0.0888,-0.0885,-0.0824,-0.0804,-0.0774,-0.072,-0.0652,-0.058,-0.0581,-0.0551,-0.0584,-0.074,-0.0819,-0.0679,-0.0799,-0.0861,-0.0868,-0.0809,-0.082,-0.0629,-0.0691,-0.0691,-0.0691,-0.0692,0,-0.1071,-0.1087,-0.1048,-0.1018,-0.1026,-0.0986,-0.091,-0.0901,-0.088,-0.0881,-0.0858,-0.0932,-0.0879,-0.1016,-0.0973,-0.1047,-0.1089,-0.1124,-0.112,-0.1187,-0.1339,-0.1129,-0.0906,-0.0998,-0.1164,-0.1168,-0.1171,0,-0.1082,-0.113,-0.1234,-0.1179,-0.1191,-0.1278,-0.1232,-0.1255,-0.1274,-0.1217,-0.1275,-0.1238,-0.14,-0.1375,-0.1329,-0.1387,-0.1298,-0.142,-0.1357,-0.1355,-0.1377,-0.1178,-0.1112,-0.0966,-0.1215,-0.1211,-0.1207,0,-0.1144,-0.1313,-0.1313,-0.1312,-0.144,-0.1464,-0.1455,-0.1486,-0.1437,-0.1504,-0.1418,-0.1477,-0.1517,-0.1535,-0.1617,-0.1541,-0.1383,-0.1631,-0.1631,-0.1548,-0.12,-0.124,-0.1215,-0.141,-0.1403,-0.1399,-0.1243,0,-0.1233,-0.1303,-0.1334,-0.1479,-0.1512,-0.1549,-0.1671,-0.1676,-0.1734,-0.1792,-0.1755,-0.1825,-0.1823,-0.1844,-0.1926,-0.1788,-0.1837,-0.1897,-0.1909,-0.1788,-0.1749,-0.172,-0.2104,-0.2108,-0.211,-0.2113,0,0,-0.1221,-0.1376,-0.1558,-0.162,-0.1658,-0.1824,-0.1835,-0.1898,-0.2017,-0.201,-0.2073,-0.2093,-0.2133,-0.2071,-0.2071,-0.2102,-0.2078,-0.2054,-0.1882,-0.1857,-0.1833,-0.1786,-0.1755,-0.2117,-0.2118,-0.2119,-0.212,0,-0.1322,-0.1479,-0.155,-0.1629,-0.1792,-0.1887,-0.1896,-0.2067,-0.2113,-0.211,-0.2224,-0.2216,-0.222,-0.2241,-0.2253,-0.215,-0.2151,-0.2169,-0.1997,-0.1909,-0.188,-0.1854,-0.1802,-0.1773,-0.2127,-0.2126,-0.2126,0,-0.1385,-0.1558,-0.1621,-0.1837,-0.1945,-0.1997,-0.2148,-0.223,-0.2243,-0.236,-0.2344,-0.24,-0.2448,-0.2402,-0.2377,-0.239,-0.2197,-0.2288,-0.2276,-0.2233,-0.2145,-0.2113,-0.2084,-0.2442,-0.2443,-0.2443,0,0,-0.1445,-0.1564,-0.1791,-0.1879,-0.1941,-0.2109,-0.2163,-0.226,-0.2358,-0.2386,-0.2418,-0.2452,-0.247,-0.244,-0.2465,-0.2372,-0.2354,-0.232,-0.2305,-0.2292,-0.2242,-0.2152,-0.2122,-0.2444,-0.2444,-0.2444,0,0,-0.1477,-0.1769,-0.1849,-0.1986,-0.2093,-0.2299,-0.2315,-0.24,-0.2445,-0.2458,-0.2527,-0.2532,-0.2493,-0.2506,-0.2523,-0.2438,-0.2511,-0.2506,-0.2387,-0.2369,-0.2355,-0.2296,-0.2577,0,0,0,0,0,-0.1687,-0.1737,-0.1807,-0.186,-0.2144,-0.2264,-0.229,-0.2431,-0.2491,-0.2478,-0.2542,-0.2556,-0.2554,-0.257,-0.256,-0.2473,-0.2461,-0.2458,-0.2455,-0.2288,-0.2269,-0.2253,0,0,0,0,0,0,-0.1709,-0.1777,-0.1805,-0.2025,-0.209,-0.2265,-0.2396,-0.2432,-0.2495,-0.2512,-0.2553,-0.2558,-0.2604,-0.2575,-0.2566,-0.2482,-0.258,-0.246,-0.2458,-0.2455,-0.2281,-0.2266,-0.2253,0,0,0,0,0,-0.1728,-0.1782,-0.2222,-0.2022,-0.2078,-0.2275,-0.2397,-0.2429,-0.2466,-0.2546,-0.2558,-0.257,-0.2602,-0.2597,-0.257,-0.2485,-0.2587,-0.2583,-0.2458,-0.2456,-0.2455,-0.2274,0,0,0,0,0,0,-0.1742,-0.1775,-0.2234,-0.2253,-0.2042,-0.2264,-0.2312,-0.2424,-0.2494,-0.2514,-0.2564,-0.2575,-0.26,-0.2596,-0.2591,-0.2484,-0.2592,-0.2588,-0.2586,-0.2457,-0.2455,-0.2454,0,0,0,0,0,0,-0.1747,-0.179,-0.2243,-0.2261,-0.2282,-0.2254,-0.2297,-0.2253,-0.2486,-0.2503,-0.252,-0.2567,-0.2558,-0.2595,-0.2592,-0.252,-0.2596,-0.2592,-0.259,-0.2589,-0.2456,-0.2454,0,0,0,0,0,0,-0.1766,-0.1803,-0.2256,-0.2272,-0.2291,-0.2503,-0.2206,-0.2453,-0.2625,-0.2491,-0.2632,-0.2636,-0.2551,-0.2553,-0.2592,-0.2521,-0.252,-0.2596,-0.2593,-0.2592,-0.2591,0,0,0,0,0,0,0,-0.1781,-0.1524,-0.2136,-0.2282,-0.2299,-0.2429,-0.2433,-0.2437,-0.2625,-0.2629,-0.2632,-0.2635,-0.2615,-0.2611,-0.2607,-0.2522,0,0,-0.2596,-0.2594,0,0,0,0,0,0,0,0,-0.1509,-0.1521,-0.2137,-0.2141,-0.2146,-0.243,-0.2433,-0.2436,-0.2626,-0.2628,-0.2631,-0.2633,-0.2614,-0.2611,-0.2608,0,0,0,0,0,0,0,0,0,0,0,0,0,0,0,-0.2137,-0.2141,0,-0.243,-0.2433,-0.2435,-0.2626,-0.2628,-0.263,-0.2632,-0.2613,-0.261,-0.2608,0,0,0,0,0,0,0,0,0,0,0,0,0,0,0,0,0,0,0,0,0,0,0,0,0,0,0,0,0,0,0,0,0,0,0,0,0,0,0,0,0,0,0,0,0,0,0,0,0,0,0,0,0,0,0,0,0,0,0,0,0,0,0,0,0,0,0,0,0]}]],[[{"header":{"parameterUnit":"kt","parameterCategory":2,"dx":1,"dy":1,"la1":30.253999710083008,"la2":30.299108505249023,"lo1":-89.0895004272461,"lo2":-89.04439544677734,"nx":28,"ny":28,"refTime":"2022-10-19T21:00:00:Z","depth":"2","parameterNumber":2,"parameterNumberName":"U-component_of_CURRENTS"},"data":[0.2863,0.2798,0.2782,0.2712,0.276,0.2697,0.2659,0.2486,0.2358,0.2051,0.1846,0.1926,0.1993,0.1602,0.1685,0.1568,0.1921,0.1533,0.2488,0.2532,0.2602,0.2871,0.2623,0,0,0,0,0,0.2952,0.2976,0.3005,0.2999,0.3008,0.3116,0.3154,0.3022,0.2908,0.2886,0.2818,0.2393,0.2243,0.2304,0.2185,0.2261,0.2305,0.2216,0.2199,0.2281,0.2354,0.2139,0.155,0.1547,0.1545,0.1543,0,0,0.314,0.3131,0.3138,0.3132,0.3227,0.3252,0.3229,0.3292,0.3318,0.3259,0.3445,0.3231,0.3228,0.3002,0.3031,0.3069,0.3339,0.3191,0.3221,0.3262,0.3089,0.2946,0.2754,0.2759,0.2763,0.2767,0.2771,0,0.3197,0.3203,0.3225,0.3241,0.3301,0.3364,0.3466,0.3498,0.3637,0.369,0.3722,0.3725,0.3807,0.3622,0.368,0.3698,0.386,0.3714,0.4427,0.3493,0.3356,0.3355,0.3381,0.3273,0.3281,0.3287,0.3292,0.3295,0.324,0.3249,0.3286,0.3303,0.3333,0.3413,0.3489,0.3618,0.3682,0.3827,0.3868,0.4004,0.4016,0.4189,0.4199,0.4265,0.4447,0.3915,0.3778,0.4297,0.4297,0.429,0.4283,0.3387,0.3375,0.3366,0.3358,0,0.3234,0.3272,0.3295,0.3355,0.3383,0.3427,0.3555,0.3627,0.3738,0.3835,0.3877,0.4028,0.4155,0.4301,0.4499,0.4474,0.4559,0.4535,0.4081,0.4025,0.4325,0.4309,0.4387,0.438,0.4374,0.4369,0.4365,0,0.3257,0.3254,0.3318,0.3315,0.3378,0.3451,0.3551,0.3619,0.3747,0.3825,0.393,0.4004,0.4192,0.4319,0.4407,0.4455,0.4607,0.4419,0.4424,0.4075,0.4024,0.4527,0.4507,0.4691,0.469,0.4689,0.4688,0,0.3252,0.328,0.3324,0.3322,0.3402,0.3452,0.3514,0.3631,0.3713,0.3842,0.3896,0.4048,0.4141,0.4262,0.4372,0.4353,0.4566,0.4561,0.4417,0.4402,0.4049,0.3994,0.4687,0.4687,0.4686,0.4686,0.4686,0,0.3273,0.3283,0.3327,0.3389,0.3419,0.3437,0.3546,0.3606,0.3737,0.3807,0.3902,0.3971,0.4098,0.4093,0.4289,0.4236,0.4301,0.436,0.4367,0.4117,0.4082,0.3837,0.3829,0.4421,0.4418,0.4416,0.4414,0,0.3213,0.3252,0.3326,0.3346,0.3396,0.3448,0.3511,0.3586,0.367,0.3738,0.3862,0.3946,0.3956,0.4001,0.408,0.4173,0.424,0.4151,0.4271,0.4274,0.409,0.4161,0.3754,0.3818,0.4386,0.4389,0.4391,0,0.32,0.3336,0.3317,0.334,0.3389,0.3416,0.3496,0.3581,0.3624,0.3697,0.3756,0.3892,0.3912,0.3946,0.398,0.4046,0.419,0.4038,0.404,0.4112,0.4373,0.4149,0.4147,0.423,0.4233,0.4236,0.4369,0,0.3151,0.3228,0.3274,0.334,0.3374,0.3419,0.3482,0.3521,0.3559,0.358,0.3705,0.3772,0.3816,0.386,0.3867,0.3982,0.3967,0.3967,0.393,0.3997,0.404,0.4058,0.3811,0.3808,0.3807,0.3805,0,0,0.3039,0.3198,0.3307,0.3322,0.3342,0.3385,0.3414,0.3453,0.3472,0.351,0.3522,0.3618,0.3672,0.3779,0.3811,0.3823,0.3853,0.3808,0.394,0.3955,0.3969,0.4015,0.4035,0.3802,0.3801,0.3801,0.38,0,0.3042,0.3186,0.329,0.3298,0.3359,0.3374,0.3383,0.3403,0.344,0.3479,0.3498,0.3567,0.3627,0.3687,0.3724,0.3792,0.3823,0.3809,0.383,0.3922,0.394,0.3956,0.4004,0.4023,0.3795,0.3796,0.3796,0,0.298,0.3053,0.3153,0.3263,0.3297,0.3321,0.3309,0.3367,0.3383,0.338,0.3417,0.3468,0.3514,0.361,0.3649,0.3615,0.3765,0.3707,0.3714,0.3693,0.3785,0.3805,0.3822,0.3611,0.3611,0.3611,0,0,0.2933,0.3072,0.3146,0.326,0.3298,0.3295,0.3311,0.3324,0.3349,0.336,0.338,0.3418,0.3492,0.3525,0.3588,0.3641,0.3653,0.369,0.3699,0.3706,0.369,0.3783,0.38,0.3611,0.3611,0.3611,0,0,0.2896,0.3054,0.3087,0.3243,0.3269,0.328,0.3327,0.3293,0.3321,0.3348,0.3365,0.3385,0.3488,0.3477,0.3469,0.3597,0.355,0.3553,0.3635,0.3646,0.3654,0.3631,0.3506,0,0,0,0,0,0.2924,0.3038,0.3068,0.3102,0.3235,0.327,0.3274,0.3301,0.3274,0.3296,0.3326,0.3356,0.3487,0.3481,0.3496,0.3574,0.3609,0.3609,0.361,0.3728,0.3739,0.3748,0,0,0,0,0,0,0.2938,0.2982,0.3063,0.3095,0.3124,0.3268,0.3258,0.3263,0.3276,0.3279,0.3342,0.3358,0.3403,0.3477,0.3489,0.3564,0.3502,0.3609,0.3609,0.361,0.3732,0.3741,0.3749,0,0,0,0,0,0.2948,0.2984,0.3226,0.3088,0.3114,0.3162,0.3259,0.3264,0.3261,0.3341,0.3354,0.3288,0.34,0.3417,0.3484,0.3558,0.3494,0.3498,0.3609,0.361,0.361,0.3736,0,0,0,0,0,0,0.2956,0.2942,0.3227,0.323,0.3104,0.3153,0.3174,0.3263,0.3323,0.3336,0.3292,0.3295,0.3398,0.3412,0.3424,0.3556,0.3487,0.3492,0.3495,0.3609,0.361,0.361,0,0,0,0,0,0,0.2923,0.2946,0.3228,0.3247,0.3252,0.3145,0.3165,0.3209,0.3326,0.3269,0.3274,0.3293,0.3419,0.3408,0.3418,0.348,0.3482,0.3486,0.3489,0.3491,0.361,0.361,0,0,0,0,0,0,0.293,0.2949,0.3246,0.325,0.3254,0.3282,0.3183,0.3339,0.329,0.3267,0.3295,0.3297,0.3417,0.3425,0.3413,0.347,0.3477,0.3482,0.3485,0.3487,0.3489,0,0,0,0,0,0,0,0.2936,0.2836,0.3222,0.3251,0.3255,0.3263,0.3262,0.3262,0.3291,0.3292,0.3294,0.3296,0.3457,0.3462,0.3466,0.3462,0,0,0.3482,0.3484,0,0,0,0,0,0,0,0,0.2825,0.2833,0.3222,0.3224,0.3225,0.3263,0.3262,0.3262,0.3291,0.3292,0.3294,0.3295,0.3458,0.3462,0.3466,0,0,0,0,0,0,0,0,0,0,0,0,0,0,0,0.3222,0.3224,0,0.3263,0.3262,0.3262,0.3291,0.3292,0.3294,0.3295,0.3459,0.3462,0.3466,0,0,0,0,0,0,0,0,0,0,0,0,0,0,0,0,0,0,0,0,0,0,0,0,0,0,0,0,0,0,0,0,0,0,0,0,0,0,0,0,0,0,0,0,0,0,0,0,0,0,0,0,0,0,0,0,0,0,0,0,0,0,0,0,0,0,0,0,0]}],[{"header":{"parameterUnit":"kt","parameterCategory":2,"dx":1,"dy":1,"la1":30.253999710083008,"la2":30.299108505249023,"lo1":-89.0895004272461,"lo2":-89.04439544677734,"nx":28,"ny":28,"refTime":"2022-10-19T21:00:00:Z","depth":"2","parameterNumber":3,"parameterNumberName":"V-component_of_CURRENTS"},"data":[0.0691,0.0853,0.0864,0.0975,0.1005,0.1046,0.1083,0.117,0.1246,0.1383,0.1411,0.1437,0.1152,0.0902,0.0628,0.0402,0.028,0.0359,0.0387,0.0346,0.0334,0.0099,0.0064,0,0,0,0,0,0.0538,0.0595,0.0739,0.0856,0.0914,0.0876,0.0942,0.1,0.1101,0.1191,0.1254,0.1157,0.1028,0.0788,0.0445,0.0251,0.0183,0.0163,0.0107,0.0095,0.0083,0.0063,0.0211,0.0209,0.0208,0.0207,0,0,0.0275,0.0396,0.0554,0.0679,0.074,0.0784,0.0842,0.0876,0.0953,0.1039,0.1011,0.106,0.0896,0.0697,0.047,0.0212,0.0205,0.0092,0.0083,0.0073,0.0058,0.0051,0.0202,0.0201,0.0201,0.02,0.0199,0,0.0093,0.0175,0.0305,0.0464,0.0541,0.0615,0.0623,0.0702,0.0652,0.0733,0.0794,0.0821,0.0713,0.0592,0.0397,0.0271,0.0034,0.0046,-0.0066,-0.0099,-0.011,-0.0153,-0.0175,0.0013,0.0011,0.001,0.0009,0.0008,-0.0084,0.0006,0.0188,0.0278,0.0314,0.0391,0.041,0.0376,0.0421,0.0466,0.0511,0.0514,0.0519,0.0419,0.0213,0.0076,-0.0053,0.0007,-0.0103,-0.0249,-0.029,-0.0309,-0.0326,-0.0011,-0.0009,-0.0007,-0.0005,0,-0.0133,-0.0111,0.0032,0.0119,0.0132,0.0213,0.022,0.0279,0.0267,0.0349,0.0361,0.0308,0.0273,0.0116,0.0033,-0.0104,-0.0166,-0.0198,-0.016,-0.0176,-0.033,-0.0345,-0.0153,-0.015,-0.0148,-0.0146,-0.0145,0,-0.0223,-0.0144,-0.0084,-0.0015,0.0088,0.0017,0.0096,0.0088,0.0089,0.0137,0.0044,0.0088,-0.0077,-0.0108,-0.0237,-0.0288,-0.0269,-0.0395,-0.0415,-0.0394,-0.0392,-0.051,-0.0521,-0.0423,-0.0424,-0.0425,-0.0426,0,-0.0305,-0.0236,-0.0157,-0.0131,-0.0105,-0.0099,-0.0109,-0.0133,-0.0145,-0.0131,-0.0096,-0.0146,-0.0149,-0.0225,-0.0352,-0.0422,-0.0359,-0.0457,-0.0471,-0.0471,-0.0374,-0.0369,-0.0427,-0.0427,-0.0427,-0.0427,-0.0428,0,-0.0413,-0.035,-0.0275,-0.0244,-0.0267,-0.0206,-0.0192,-0.0211,-0.0248,-0.0321,-0.0346,-0.0435,-0.0397,-0.0543,-0.0534,-0.0586,-0.0629,-0.0665,-0.0663,-0.0582,-0.0675,-0.0572,-0.0453,-0.0683,-0.0685,-0.0687,-0.0689,0,-0.0445,-0.0371,-0.045,-0.0352,-0.0363,-0.0465,-0.0443,-0.0506,-0.0589,-0.0563,-0.0703,-0.0677,-0.081,-0.0787,-0.0782,-0.079,-0.0751,-0.0823,-0.0743,-0.0738,-0.0747,-0.0647,-0.0601,-0.0491,-0.0716,-0.0713,-0.0711,0,-0.0515,-0.0592,-0.0572,-0.0557,-0.0633,-0.065,-0.0668,-0.074,-0.0706,-0.0843,-0.0798,-0.0847,-0.0899,-0.086,-0.0884,-0.084,-0.0798,-0.0882,-0.088,-0.0871,-0.0721,-0.069,-0.067,-0.0852,-0.0848,-0.0846,-0.0732,0,-0.0541,-0.0587,-0.0608,-0.0644,-0.0691,-0.0747,-0.0875,-0.0904,-0.0999,-0.1048,-0.1092,-0.1127,-0.1052,-0.1074,-0.1072,-0.0973,-0.0989,-0.1024,-0.0991,-0.0934,-0.0892,-0.0876,-0.1056,-0.1055,-0.1055,-0.1054,0,0,-0.0558,-0.0658,-0.0822,-0.0815,-0.0859,-0.1018,-0.103,-0.1082,-0.1155,-0.1184,-0.1281,-0.1199,-0.1199,-0.1101,-0.1113,-0.1101,-0.1083,-0.1039,-0.096,-0.0951,-0.0941,-0.0899,-0.0885,-0.1053,-0.1053,-0.1053,-0.1052,0,-0.0593,-0.0754,-0.0805,-0.0853,-0.1009,-0.1055,-0.1081,-0.1196,-0.128,-0.1264,-0.1309,-0.1308,-0.1233,-0.1216,-0.1187,-0.1106,-0.1097,-0.111,-0.0993,-0.0959,-0.095,-0.0942,-0.0899,-0.0887,-0.1051,-0.1051,-0.1051,0,-0.0636,-0.0733,-0.0811,-0.0976,-0.1062,-0.1077,-0.1208,-0.1316,-0.1317,-0.1348,-0.131,-0.1346,-0.1301,-0.1268,-0.1245,-0.1212,-0.1066,-0.1111,-0.1111,-0.1047,-0.101,-0.0999,-0.0989,-0.1118,-0.1119,-0.112,0,0,-0.0632,-0.0722,-0.0913,-0.1,-0.1075,-0.1165,-0.121,-0.1305,-0.135,-0.1367,-0.1355,-0.1332,-0.1321,-0.1285,-0.1284,-0.1162,-0.1119,-0.1126,-0.1122,-0.112,-0.1057,-0.1018,-0.1007,-0.1123,-0.1123,-0.1123,0,0,-0.0634,-0.0851,-0.093,-0.1063,-0.1166,-0.1267,-0.1312,-0.1344,-0.1356,-0.1394,-0.1388,-0.1393,-0.1394,-0.1325,-0.1369,-0.1264,-0.1268,-0.1257,-0.1322,-0.1316,-0.1313,-0.1262,-0.1416,0,0,0,0,0,-0.0756,-0.082,-0.089,-0.0937,-0.1131,-0.1222,-0.1235,-0.1366,-0.1385,-0.1405,-0.1419,-0.1433,-0.1378,-0.1419,-0.1397,-0.1372,-0.1162,-0.1155,-0.1149,-0.1209,-0.1204,-0.12,0,0,0,0,0,0,-0.0776,-0.083,-0.0888,-0.1003,-0.105,-0.1218,-0.1301,-0.1329,-0.1392,-0.1413,-0.1424,-0.1431,-0.1458,-0.1428,-0.1408,-0.1386,-0.1422,-0.116,-0.1154,-0.1148,-0.1207,-0.1204,-0.12,0,0,0,0,0,-0.0791,-0.0836,-0.1151,-0.0998,-0.1038,-0.1217,-0.1304,-0.1331,-0.1355,-0.1416,-0.1429,-0.1472,-0.1453,-0.1443,-0.1416,-0.1396,-0.1436,-0.1428,-0.1156,-0.1151,-0.1147,-0.1206,0,0,0,0,0,0,-0.0804,-0.0778,-0.1158,-0.1171,-0.1068,-0.1211,-0.1247,-0.133,-0.1351,-0.1372,-0.1463,-0.1479,-0.1447,-0.144,-0.1432,-0.1402,-0.1446,-0.1439,-0.1435,-0.1152,-0.1149,-0.1145,0,0,0,0,0,0,-0.0758,-0.0788,-0.1162,-0.1245,-0.1266,-0.1204,-0.1238,-0.1142,-0.1345,-0.1388,-0.1409,-0.147,-0.1462,-0.1437,-0.1431,-0.1271,-0.1455,-0.1448,-0.1443,-0.144,-0.1149,-0.1146,0,0,0,0,0,0,-0.077,-0.0796,-0.124,-0.1256,-0.1275,-0.1402,-0.1111,-0.1289,-0.1482,-0.1378,-0.1502,-0.1511,-0.1456,-0.1452,-0.143,-0.1272,-0.1271,-0.1454,-0.145,-0.1446,-0.1444,0,0,0,0,0,0,0,-0.078,-0.0612,-0.112,-0.1266,-0.1282,-0.1297,-0.1296,-0.1296,-0.1484,-0.1492,-0.15,-0.1507,-0.1494,-0.1487,-0.1479,-0.1272,0,0,-0.1455,-0.1452,0,0,0,0,0,0,0,0,-0.0601,-0.0609,-0.1121,-0.1126,-0.1131,-0.1297,-0.1296,-0.1296,-0.1485,-0.1492,-0.1498,-0.1504,-0.1492,-0.1486,-0.148,0,0,0,0,0,0,0,0,0,0,0,0,0,0,0,-0.1122,-0.1126,0,-0.1297,-0.1296,-0.1296,-0.1486,-0.1491,-0.1497,-0.1502,-0.1491,-0.1486,-0.148,0,0,0,0,0,0,0,0,0,0,0,0,0,0,0,0,0,0,0,0,0,0,0,0,0,0,0,0,0,0,0,0,0,0,0,0,0,0,0,0,0,0,0,0,0,0,0,0,0,0,0,0,0,0,0,0,0,0,0,0,0,0,0,0,0,0,0,0,0]}]],[[{"header":{"parameterUnit":"kt","parameterCategory":2,"dx":1,"dy":1,"la1":30.253999710083008,"la2":30.299108505249023,"lo1":-89.0895004272461,"lo2":-89.04439544677734,"nx":28,"ny":28,"refTime":"2022-10-19T21:00:00:Z","depth":"4","parameterNumber":2,"parameterNumberName":"U-component_of_CURRENTS"},"data":[-0.0185,-0.0031,0.0063,0.0166,0.0313,0.0306,0.0352,0.0511,0.0416,0.0679,0.0691,0.0954,0.0999,0.1193,0.1135,0.1162,0.1405,0.1413,0.1408,0.1946,0.1989,0.2026,0.1891,0,0,0,0,0,-0.0238,-0.0149,0.0135,0.0392,0.0502,0.0614,0.0759,0.0889,0.1027,0.0939,0.1123,0.1093,0.1194,0.1246,0.1185,0.1367,0.1659,0.1286,0.1733,0.1973,0.202,0.1872,0,0,0,0,0,0,-0.0305,-0.0223,-0.0006,0.0433,0.0639,0.067,0.0904,0.0954,0.1048,0.1341,0.1254,0.1487,0.1672,0.1634,0.1415,0.1377,0.1679,0.1725,0.1782,0.1829,0.1666,0.1427,0.1107,0,0,0,0,0,-0.0343,-0.0248,-0.0079,0.0341,0.0666,0.0865,0.1169,0.1216,0.1458,0.1749,0.1719,0.1844,0.1808,0.1888,0.1679,0.168,0.2089,0.188,0.1921,0.2359,0.2226,0.2108,0.2112,0.2198,0.2204,0.2208,0.221,0,-0.0339,-0.0271,0.0067,0.0299,0.0534,0.0962,0.1203,0.1555,0.1627,0.1978,0.1951,0.2185,0.2316,0.202,0.2138,0.2113,0.2078,0.1993,0.2456,0.2301,0.2173,0.2164,0.2154,0.2248,0.2245,0.2242,0.2239,0,-0.0282,-0.0236,-0.0046,0.0309,0.0497,0.0789,0.1292,0.1482,0.1851,0.208,0.2243,0.2516,0.258,0.2584,0.2667,0.259,0.2497,0.2345,0.2517,0.2388,0.2237,0.2211,0.231,0.2296,0.2285,0.2275,0.2267,0,-0.0255,-0.0137,0.0036,0.0149,0.0503,0.0746,0.1159,0.1469,0.1811,0.1985,0.2377,0.248,0.2828,0.2767,0.281,0.266,0.2859,0.271,0.2588,0.2917,0.2889,0.2731,0.2679,0.3184,0.3184,0.3184,0.3184,0,-0.0289,-0.0127,-0.0009,0.01,0.0407,0.0688,0.0957,0.1358,0.158,0.2034,0.2205,0.2545,0.2704,0.2878,0.2784,0.2922,0.2844,0.2976,0.2604,0.2566,0.2711,0.2658,0.3184,0.3184,0.3184,0.3184,0.3184,0,-0.0282,-0.0265,-0.0111,0.0151,0.0231,0.0486,0.0948,0.1204,0.1594,0.1817,0.2143,0.2256,0.2571,0.255,0.2785,0.2741,0.2766,0.2737,0.2733,0.2175,0.1879,0.2057,0.2523,0.2519,0.2515,0.2511,0.2508,0,-0.0229,-0.0238,-0.0249,0.0004,0.0094,0.0332,0.062,0.0917,0.1193,0.1508,0.1716,0.1985,0.2044,0.219,0.2372,0.2336,0.2502,0.2392,0.2249,0.2242,0.1845,0.2181,0.2447,0.2453,0.246,0.2465,0.2469,0,-0.0282,-0.0391,-0.0368,-0.0277,-0.0089,0.0011,0.035,0.0628,0.0848,0.1198,0.1499,0.1795,0.1875,0.1908,0.1918,0.2061,0.239,0.1982,0.1975,0.1982,0.2582,0.2158,0.2148,0.2404,0.2412,0.2419,0.2431,0,-0.0268,-0.032,-0.0329,-0.0333,-0.0224,-0.0113,0.008,0.0306,0.0544,0.0697,0.1056,0.1148,0.134,0.1415,0.1399,0.1706,0.1597,0.1489,0.1306,0.1627,0.1571,0.1604,0.108,0.1071,0.1063,0.1057,0,0,-0.0173,-0.0392,-0.0543,-0.0521,-0.0419,-0.0359,-0.0231,-0.0095,0.0126,0.0282,0.0342,0.0688,0.0709,0.0924,0.1098,0.1054,0.1056,0.1072,0.1444,0.1489,0.1529,0.1497,0.1537,0.1043,0.104,0.1037,0.1034,0,-0.027,-0.0429,-0.0561,-0.0512,-0.0479,-0.0426,-0.037,-0.0246,-0.0108,0.0167,0.0173,0.0353,0.0532,0.0582,0.061,0.0933,0.0813,0.0973,0.1278,0.1374,0.1429,0.1477,0.1458,0.15,0.1015,0.1016,0.1017,0,-0.0248,-0.0389,-0.05,-0.0614,-0.0592,-0.0498,-0.0541,-0.0465,-0.029,-0.0373,-0.0049,-0.0003,-0.0017,0.0209,0.0299,0.0194,0.0569,0.0446,0.0484,0.0482,0.0566,0.063,0.0687,-0.0043,-0.0045,-0.0047,0,0,-0.026,-0.0467,-0.0513,-0.0618,-0.0604,-0.0563,-0.0538,-0.049,-0.0418,-0.0371,-0.0261,-0.0179,-0.0095,-0.002,0.002,0.0197,0.0112,0.0334,0.0383,0.0426,0.0448,0.0542,0.0603,-0.0054,-0.0054,-0.0055,0,0,-0.0223,-0.0453,-0.0482,-0.0639,-0.0604,-0.0605,-0.0582,-0.0529,-0.0429,-0.0377,-0.038,-0.0365,-0.0145,-0.0221,-0.0309,0.0016,-0.0214,-0.0196,0.0137,0.0196,0.0244,0.0271,-0.0441,0,0,0,0,0,-0.0334,-0.0447,-0.0474,-0.0505,-0.0639,-0.0617,-0.0613,-0.0587,-0.0533,-0.0498,-0.0397,-0.0471,-0.0255,-0.0335,-0.0331,-0.011,-0.0148,-0.0132,-0.0116,0.0348,0.0412,0.0466,0,0,0,0,0,0,-0.0347,-0.0395,-0.0466,-0.0502,-0.0527,-0.0619,-0.0626,-0.0619,-0.0537,-0.0529,-0.0481,-0.0474,-0.0508,-0.0344,-0.0339,-0.0124,-0.0443,-0.0142,-0.0128,-0.0115,0.037,0.0422,0.0467,0,0,0,0,0,-0.0356,-0.0394,-0.0655,-0.0493,-0.0516,-0.0497,-0.0624,-0.0618,-0.0532,-0.0561,-0.0549,-0.05,-0.051,-0.05,-0.0341,-0.0122,-0.0447,-0.0445,-0.0133,-0.0121,-0.0112,0.0395,0,0,0,0,0,0,-0.0363,-0.036,-0.0654,-0.0652,-0.0475,-0.0484,-0.0502,-0.0618,-0.0566,-0.0556,-0.0591,-0.0587,-0.0512,-0.0503,-0.0496,-0.0111,-0.0451,-0.0448,-0.0447,-0.0124,-0.0115,-0.0108,0,0,0,0,0,0,-0.0337,-0.0362,-0.0653,-0.0633,-0.0629,-0.0473,-0.049,-0.0473,-0.0564,-0.0598,-0.0594,-0.0589,-0.0503,-0.0506,-0.05,-0.0473,-0.0454,-0.0451,-0.045,-0.0449,-0.0117,-0.011,0,0,0,0,0,0,-0.0343,-0.0364,-0.0633,-0.063,-0.0627,-0.0609,-0.045,-0.0581,-0.0583,-0.06,-0.0578,-0.0575,-0.0506,-0.05,-0.0503,-0.048,-0.0475,-0.0454,-0.0452,-0.0451,-0.045,0,0,0,0,0,0,0,-0.0348,-0.0261,-0.0661,-0.0628,-0.0625,-0.0637,-0.0637,-0.0637,-0.0582,-0.058,-0.0578,-0.0576,-0.0467,-0.0464,-0.0462,-0.0485,0,0,-0.0454,-0.0453,0,0,0,0,0,0,0,0,-0.0247,-0.0258,-0.066,-0.066,-0.066,-0.0637,-0.0637,-0.0637,-0.0582,-0.058,-0.0579,-0.0577,-0.0466,-0.0464,-0.0462,0,0,0,0,0,0,0,0,0,0,0,0,0,0,0,-0.066,-0.066,0,-0.0637,-0.0637,-0.0637,-0.0581,-0.058,-0.0579,-0.0578,-0.0466,-0.0464,-0.0462,0,0,0,0,0,0,0,0,0,0,0,0,0,0,0,0,0,0,0,0,0,0,0,0,0,0,0,0,0,0,0,0,0,0,0,0,0,0,0,0,0,0,0,0,0,0,0,0,0,0,0,0,0,0,0,0,0,0,0,0,0,0,0,0,0,0,0,0,0]}],[{"header":{"parameterUnit":"kt","parameterCategory":2,"dx":1,"dy":1,"la1":30.253999710083008,"la2":30.299108505249023,"lo1":-89.0895004272461,"lo2":-89.04439544677734,"nx":28,"ny":28,"refTime":"2022-10-19T21:00:00:Z","depth":"4","parameterNumber":3,"parameterNumberName":"V-component_of_CURRENTS"},"data":[0.091,0.1016,0.1133,0.1226,0.1326,0.1429,0.1476,0.1487,0.1356,0.1329,0.1182,0.1151,0.089,0.0973,0.0623,0.0583,0.0517,0.0328,0.0326,0.0229,0.023,0.0231,0.0478,0,0,0,0,0,0.0994,0.1051,0.119,0.1395,0.1532,0.1608,0.1635,0.1683,0.1678,0.1458,0.1419,0.1167,0.0892,0.0767,0.0624,0.0601,0.0405,0.0431,0.0353,0.023,0.0231,0.0471,0,0,0,0,0,0,0.1047,0.1144,0.1378,0.1575,0.1706,0.1723,0.1784,0.1712,0.1668,0.1457,0.1382,0.111,0.1013,0.0778,0.0638,0.0509,0.0415,0.037,0.0364,0.0363,0.0572,0.0756,0.0447,0,0,0,0,0,0.1065,0.1268,0.1468,0.1667,0.1826,0.1919,0.1954,0.1901,0.1849,0.1785,0.1479,0.1261,0.0992,0.0805,0.0653,0.0466,0.0456,0.0349,0.0346,0.0396,0.0518,0.0511,0.0543,0.0234,0.0234,0.0235,0.0235,0,0.1058,0.1247,0.1637,0.1732,0.1922,0.206,0.21,0.2124,0.2045,0.1803,0.1668,0.1382,0.1217,0.0864,0.0757,0.0494,0.0467,0.0354,0.041,0.0524,0.0508,0.0542,0.0574,0.0235,0.0235,0.0235,0.0235,0,0.1033,0.1292,0.1594,0.191,0.1977,0.2082,0.2158,0.214,0.2054,0.1881,0.1785,0.1553,0.1292,0.1157,0.0839,0.0793,0.0575,0.0485,0.0686,0.066,0.0557,0.059,0.0237,0.0236,0.0236,0.0236,0.0236,0,0.1094,0.1284,0.1673,0.1804,0.1953,0.2109,0.2158,0.2151,0.208,0.1981,0.1834,0.165,0.1474,0.1286,0.115,0.0919,0.083,0.074,0.0688,0.0835,0.0864,0.0709,0.0728,0.0577,0.058,0.0582,0.0585,0,0.1072,0.1435,0.1662,0.1755,0.2025,0.2118,0.2159,0.2164,0.214,0.2003,0.1904,0.1735,0.1577,0.1375,0.1226,0.1252,0.0918,0.0902,0.0789,0.0794,0.0732,0.0746,0.0588,0.0588,0.0589,0.059,0.0591,0,0.1172,0.1397,0.1664,0.19,0.194,0.2066,0.209,0.2147,0.2107,0.21,0.1992,0.1881,0.1712,0.1714,0.1413,0.1535,0.1354,0.1247,0.123,0.1192,0.1214,0.1131,0.1064,0.1069,0.1074,0.1079,0.1083,0,0.106,0.1394,0.1563,0.1788,0.1916,0.1974,0.2045,0.2101,0.2124,0.213,0.203,0.1957,0.1983,0.1884,0.1797,0.1627,0.1485,0.1676,0.121,0.1195,0.1288,0.1229,0.15,0.115,0.1141,0.1135,0.1131,0,0.0965,0.1386,0.1422,0.1569,0.1749,0.1785,0.1913,0.195,0.1997,0.2115,0.2099,0.2062,0.1992,0.1911,0.1824,0.1719,0.1581,0.166,0.1646,0.1542,0.1214,0.13,0.1269,0.1531,0.1525,0.152,0.1177,0,0.1057,0.1256,0.1345,0.1589,0.1636,0.172,0.1773,0.1883,0.2009,0.2032,0.2049,0.1979,0.1897,0.1933,0.1869,0.1745,0.1692,0.166,0.1585,0.1581,0.1437,0.1401,0.1767,0.1764,0.1761,0.1759,0,0,0.0877,0.1108,0.1207,0.1377,0.1421,0.148,0.1575,0.1636,0.1779,0.1804,0.1892,0.1854,0.1855,0.173,0.1746,0.1752,0.1633,0.174,0.1609,0.1595,0.1579,0.1441,0.1411,0.1754,0.1752,0.1751,0.1751,0,0.0894,0.1016,0.1185,0.1244,0.1382,0.1384,0.1471,0.1572,0.1657,0.178,0.1763,0.1779,0.1827,0.1719,0.1665,0.1719,0.1607,0.1743,0.1761,0.1593,0.1582,0.1571,0.1435,0.141,0.1744,0.1744,0.1744,0,0.08,0.0947,0.1011,0.1153,0.1198,0.1268,0.1287,0.1402,0.1495,0.1464,0.1682,0.1655,0.1558,0.1575,0.1611,0.1575,0.1533,0.1625,0.1636,0.1569,0.1387,0.1376,0.1367,0.1484,0.1484,0.1485,0,0,0.0818,0.0986,0.1024,0.1139,0.117,0.1235,0.1286,0.1348,0.1408,0.1471,0.1552,0.1576,0.1539,0.1576,0.1545,0.1578,0.1437,0.1603,0.1615,0.1626,0.1568,0.1389,0.1379,0.1485,0.1485,0.1485,0,0,0.0779,0.0931,0.0979,0.1111,0.1143,0.1143,0.1219,0.1305,0.1401,0.1477,0.1475,0.1486,0.1583,0.1531,0.154,0.1547,0.1479,0.1479,0.1623,0.1637,0.1648,0.1585,0.1483,0,0,0,0,0,0.0807,0.0904,0.0947,0.0975,0.1088,0.1108,0.1116,0.1201,0.1333,0.1389,0.1453,0.1456,0.1488,0.1494,0.1497,0.1562,0.1491,0.149,0.1489,0.1679,0.1695,0.1707,0,0,0,0,0,0,0.0817,0.0851,0.0942,0.095,0.0976,0.1105,0.1141,0.1161,0.1328,0.1351,0.1436,0.1449,0.139,0.1493,0.1495,0.1558,0.1482,0.149,0.1489,0.1489,0.1684,0.1697,0.1708,0,0,0,0,0,0.0826,0.0853,0.1049,0.0947,0.0969,0.1074,0.1146,0.1164,0.1336,0.1283,0.1307,0.1428,0.1384,0.1397,0.1494,0.1558,0.148,0.1481,0.149,0.1489,0.1488,0.1691,0,0,0,0,0,0,0.0832,0.0831,0.1052,0.1057,0.1002,0.1072,0.1098,0.1166,0.1263,0.1285,0.1252,0.1266,0.1379,0.139,0.1399,0.156,0.1478,0.1479,0.148,0.1489,0.1489,0.1488,0,0,0,0,0,0,0.0817,0.0836,0.1054,0.112,0.1133,0.107,0.1094,0.1086,0.1265,0.1226,0.1241,0.1258,0.1396,0.1384,0.1392,0.1371,0.1477,0.1478,0.1479,0.1479,0.1489,0.1488,0,0,0,0,0,0,0.0824,0.084,0.1118,0.1128,0.114,0.1196,0.1063,0.1195,0.1277,0.1221,0.1293,0.1301,0.1389,0.1397,0.1386,0.136,0.1368,0.1477,0.1478,0.1478,0.1479,0,0,0,0,0,0,0,0.0829,0.0735,0.1031,0.1135,0.1146,0.1104,0.1105,0.1105,0.1279,0.1285,0.1292,0.1298,0.1471,0.1472,0.1474,0.1352,0,0,0.1477,0.1478,0,0,0,0,0,0,0,0,0.0727,0.0733,0.1032,0.1033,0.1035,0.1105,0.1105,0.1105,0.128,0.1285,0.129,0.1295,0.1472,0.1472,0.1473,0,0,0,0,0,0,0,0,0,0,0,0,0,0,0,0.1032,0.1033,0,0.1105,0.1105,0.1105,0.1281,0.1285,0.1289,0.1293,0.1472,0.1473,0.1473,0,0,0,0,0,0,0,0,0,0,0,0,0,0,0,0,0,0,0,0,0,0,0,0,0,0,0,0,0,0,0,0,0,0,0,0,0,0,0,0,0,0,0,0,0,0,0,0,0,0,0,0,0,0,0,0,0,0,0,0,0,0,0,0,0,0,0,0,0]}]]]